Shannon, Ireland

2:01 PM IST on April 26, 2017 (GMT +0100)
Shannon

Weather History for EINN - July, 2013

Change the Weather History Date:

Tuesday, July 2, 2013

  Actual Average Record
Temperature  
Mean Temperature 58 °F -  
Max Temperature 63 °F 67 °F 73 °F (2001)
Min Temperature 52 °F 54 °F 50 °F (1997)
Degree Days  
Heating Degree Days 8    
Growing Degree Days 8 (Base 50)    
Moisture  
Dew Point 54 °F    
Average Humidity 93    
Maximum Humidity 100    
Minimum Humidity 82    
Precipitation  
Precipitation 0.12 in 0.08 in - ()
Sea Level Pressure  
Sea Level Pressure 29.63 in    
Wind  
Wind Speed 12 mph ()    
Max Wind Speed 22 mph    
Max Gust Speed -    
Visibility 5.4 miles    
Events Rain    
Averages and records for this station are not official NWS values.
T = Trace of Precipitation, MM = Missing Value Source: Averaged Metar Reports

Daily Weather History Graph

Daily Weather History Graph

Search for Another Location

Airport or City:

Trip Planner

Search our weather history database for the weather conditions in past years. The results will help you decide how hot, cold, wet, or windy it might be!

Date:

Astronomy

Jul. 02, 2013 Rise Set
Actual Time 5:16 AM IST 10:02 PM IST
Civil Twilight 4:26 AM IST 10:52 PM IST
Nautical Twilight 3:05 AM IST 12:12 AM IST
Astronomical Twilight Sun does not set Sun does not set
Moon 1:39 AM IST (7/2) 4:41 PM IST (7/2)
Length of Visible Light 18h 25m
Length of Day
16h 45m
Waning Crescent, 28% of the Moon is Illuminated
Jul 2
Waning Crescent
Jul 8
New
Jul 16
First Quarter
Jul 22
Full
Jul 29
Last Quarter

Hourly Weather History & Observations

Time (IST) Temp. Dew Point Humidity Pressure Visibility Wind Dir Wind Speed Gust Speed Precip Events Conditions
12:00 AM 53.6 °F 51.8 °F 94% 29.86 in 6.2 mi East 10.4 mph - N/A Rain Light Rain
12:30 AM 53.6 °F 51.8 °F 94% 29.86 in 6.2 mi ESE 13.8 mph - N/A   Mostly Cloudy
1:00 AM 53 °F 52 °F 93% 29.87 in 9 mi SSE 11.2 mph - - Rain Light Rain
1:00 AM 53.6 °F 51.8 °F 94% 29.86 in 6.2 mi SSE 11.5 mph - N/A Rain Light Rain
1:30 AM 53.6 °F 51.8 °F 94% 29.83 in 6.2 mi SSE 18.4 mph - N/A   Mostly Cloudy
2:00 AM 53.6 °F 50.0 °F 88% 29.83 in 6.2 mi SSE 15.0 mph - N/A   Mostly Cloudy
2:30 AM 53.6 °F 50.0 °F 88% 29.80 in 6.2 mi SSE 11.5 mph - N/A   Mostly Cloudy
3:00 AM 53.6 °F 51.8 °F 94% 29.80 in 6.2 mi SSE 16.1 mph - N/A   Mostly Cloudy
3:30 AM 53.6 °F 51.8 °F 94% 29.77 in 6.2 mi SE 12.7 mph - N/A Rain Light Rain
4:00 AM 53.6 °F 51.8 °F 94% 29.77 in 6.2 mi SE 10.4 mph - N/A   Mostly Cloudy
4:30 AM 53.6 °F 51.8 °F 94% 29.74 in 6.2 mi SE 11.5 mph - N/A   Mostly Cloudy
5:00 AM 53.6 °F 51.8 °F 94% 29.71 in 6.2 mi SE 10.4 mph - N/A   Mostly Cloudy
5:30 AM 53.6 °F 50.0 °F 88% 29.71 in 6.2 mi SSE 15.0 mph - N/A   Mostly Cloudy
6:00 AM 53.6 °F 48.2 °F 82% 29.68 in 6.2 mi SSE 10.4 mph - N/A   Mostly Cloudy
6:30 AM 51.8 °F 48.2 °F 88% 29.68 in 6.2 mi SSE 12.7 mph - N/A   Light Drizzle
7:00 AM 53 °F 49 °F 83% 29.67 in 12 mi SSE 13.4 mph - - Rain Light Rain
7:00 AM 53.6 °F 50.0 °F 88% 29.65 in 6.2 mi SSE 13.8 mph - N/A Rain Light Rain
7:30 AM 53.6 °F 50.0 °F 88% 29.65 in 6.2 mi SSE 12.7 mph - N/A   Mostly Cloudy
8:00 AM 55.4 °F 50.0 °F 82% 29.65 in 6.2 mi South 11.5 mph - N/A   Mostly Cloudy
8:30 AM 55.4 °F 51.8 °F 88% 29.62 in 6.2 mi SSE 12.7 mph - N/A   Mostly Cloudy
9:00 AM 55.4 °F 51.8 °F 88% 29.62 in 3.1 mi SSE 13.8 mph - N/A Rain Light Rain
9:30 AM 55.4 °F 53.6 °F 94% 29.62 in 6.2 mi SSE 12.7 mph - N/A Rain Light Rain
10:00 AM 55.4 °F 53.6 °F 94% 29.59 in 6.2 mi SSE 15.0 mph - N/A   Mostly Cloudy
10:30 AM 55.4 °F 53.6 °F 94% 29.59 in 6.2 mi SSE 11.5 mph - N/A   Overcast
11:00 AM 57.2 °F 53.6 °F 88% 29.59 in 6.2 mi SSE 11.5 mph - N/A   Mostly Cloudy
11:30 AM 57.2 °F 55.4 °F 94% 29.56 in 4.3 mi SSE 10.4 mph - N/A   Light Drizzle
12:00 PM 59.0 °F 57.2 °F 94% 29.56 in 6.2 mi South 8.1 mph - N/A   Overcast
12:30 PM 59.0 °F 57.2 °F 94% 29.56 in 3.7 mi SW 10.4 mph - N/A   Light Drizzle
1:00 PM 59 °F 58 °F 97% 29.57 in 10 mi SW 11.2 mph - - Rain Light Drizzle
1:00 PM 59.0 °F 59.0 °F 100% 29.56 in 6.2 mi SW 11.5 mph - N/A   Overcast
1:30 PM 60.8 °F 59.0 °F 94% 29.56 in 6.2 mi SW 9.2 mph - N/A   Mostly Cloudy
2:00 PM 62.6 °F 59.0 °F 88% 29.53 in 6.2 mi SW 12.7 mph - N/A   Mostly Cloudy
2:30 PM 62.6 °F 59.0 °F 88% 29.53 in 6.2 mi SW 11.5 mph - N/A Rain Light Rain
3:00 PM 62.6 °F 60.8 °F 94% 29.53 in 3.1 mi SW 16.1 mph - N/A Rain Light Rain
3:30 PM 60.8 °F 59.0 °F 94% 29.53 in 3.1 mi WSW 17.3 mph - N/A Rain Light Rain
4:00 PM 59.0 °F 59.0 °F 100% 29.53 in 2.2 mi WSW 20.7 mph - N/A   Light Drizzle
4:30 PM 59.0 °F 59.0 °F 100% 29.53 in 1.9 mi SW 17.3 mph - N/A   Light Drizzle
5:00 PM 59.0 °F 57.2 °F 94% 29.53 in 3.1 mi SW 19.6 mph - N/A   Light Drizzle
5:30 PM 59.0 °F 57.2 °F 94% 29.53 in 1.7 mi SW 18.4 mph - N/A   Drizzle
6:00 PM 57.2 °F 57.2 °F 100% 29.53 in 1.6 mi SW 18.4 mph - N/A   Drizzle
6:30 PM 57.2 °F 57.2 °F 100% 29.53 in 1.7 mi SW 17.3 mph - N/A   Light Drizzle
7:00 PM 57 °F 57 °F 100% 29.54 in 2 mi WSW 15.7 mph - - Rain Light Rain
7:00 PM 57.2 °F 57.2 °F 100% 29.53 in 1.9 mi WSW 16.1 mph - N/A Rain Light Rain
7:30 PM 57.2 °F 57.2 °F 100% 29.53 in 1.9 mi WSW 15.0 mph - N/A Rain Light Rain
8:00 PM 57.2 °F 55.4 °F 94% 29.53 in 6.2 mi WSW 13.8 mph - N/A   Mostly Cloudy
8:30 PM 55.4 °F 53.6 °F 94% 29.53 in 6.2 mi West 21.9 mph - N/A   Mostly Cloudy
9:00 PM 55.4 °F 53.6 °F 94% 29.53 in 3.1 mi West 12.7 mph - N/A   Light Drizzle
9:30 PM 55.4 °F 53.6 °F 94% 29.56 in 6.2 mi West 13.8 mph - N/A   Mostly Cloudy
10:00 PM 55.4 °F 51.8 °F 88% 29.56 in 6.2 mi West 15.0 mph - N/A   Mostly Cloudy
10:30 PM 55.4 °F 53.6 °F 94% 29.56 in 5.0 mi West 11.5 mph - N/A   Light Drizzle
11:00 PM 53.6 °F 53.6 °F 100% 29.59 in 6.2 mi WSW 12.7 mph - N/A   Mostly Cloudy
11:30 PM 53.6 °F 53.6 °F 100% 29.59 in 6.2 mi WSW 11.5 mph - N/A   Mostly Cloudy